| time (UTC) | temp F | wind direction | speed MPH | gust MPH | rain 1hr in | rain 24hr in | rain mn in | humidity % | barometer mb |
| 20260903205033 | 58 | 199 | 8.0 | 13.0 | 0.00 | 0.41 | 0.15 | 77 | |
| 20260903204043 | 58 | 198 | 8.0 | 11.0 | 0.00 | 0.41 | 0.15 | 78 | |
| 20260903203030 | 60 | 185 | 8.0 | 12.0 | 0.00 | 0.41 | 0.15 | 79 | |
| 20260903202020 | 60 | 142 | 8.0 | 11.0 | 0.00 | 0.41 | 0.15 | 79 | |
| 20260903201027 | 59 | 122 | 8.0 | 12.0 | 0.00 | 0.41 | 0.15 | 84 | |
| 20260903200036 | 59 | 152 | 7.0 | 11.0 | 0.00 | 0.41 | 0.15 | 85 | |
| 20260903195024 | 59 | 134 | 8.0 | 12.0 | 0.00 | 0.41 | 0.15 | 84 | |
| 20260903194053 | 59 | 144 | 8.0 | 10.0 | 0.00 | 0.41 | 0.15 | 83 | |
| 20260903193021 | 60 | 122 | 10.0 | 17.0 | 0.00 | 0.42 | 0.15 | 81 | |
| 20260903192108 | 60 | 150 | 8.0 | 15.0 | 0.00 | 0.42 | 0.15 | 81 | |
| 20260903191117 | 60 | 130 | 10.0 | 17.0 | 0.00 | 0.43 | 0.15 | 81 | |
| 20260903190026 | 60 | 119 | 10.0 | 14.0 | 0.00 | 0.43 | 0.15 | 83 | |
| 20260903185033 | 60 | 125 | 9.0 | 13.0 | 0.00 | 0.45 | 0.15 | 86 | |
| 20260903184024 | 59 | 107 | 9.0 | 11.0 | 0.00 | 0.46 | 0.15 | 87 | |
| 20260903183030 | 59 | 106 | 8.0 | 11.0 | 0.00 | 0.50 | 0.15 | 88 | |
| 20260903182020 | 59 | 132 | 10.0 | 14.0 | 0.01 | 0.53 | 0.15 | 90 | |
| 20260903181028 | 59 | 118 | 8.0 | 12.0 | 0.04 | 0.55 | 0.15 | 91 | |
| 20260903180055 | 58 | 102 | 9.0 | 15.0 | 0.06 | 0.57 | 0.15 | 90 | |
| 20260903175024 | 58 | 129 | 9.0 | 12.0 | 0.07 | 0.57 | 0.15 | 91 | |
| 20260903174032 | 57 | 124 | 6.0 | 9.0 | 0.07 | 0.57 | 0.15 | 92 | |
| 20260903173023 | 57 | 118 | 7.0 | 10.0 | 0.07 | 0.58 | 0.15 | 92 | |
| 20260903172030 | 57 | 122 | 5.0 | 7.0 | 0.06 | 0.57 | 0.14 | 92 | |
| 20260903171019 | 58 | 162 | 6.0 | 8.0 | 0.04 | 0.55 | 0.11 | 90 | |
| 20260903170027 | 58 | 144 | 7.0 | 14.0 | 0.02 | 0.54 | 0.09 | 88 | |
| 20260903165035 | 59 | 133 | 8.0 | 13.0 | 0.01 | 0.53 | 0.08 | 83 | |
| 20260903164024 | 61 | 133 | 9.0 | 15.0 | 0.01 | 0.53 | 0.08 | 80 | |
| 20260903163032 | 61 | 132 | 11.0 | 17.0 | 0.01 | 0.53 | 0.08 | 80 | |
| 20260903162022 | 61 | 123 | 10.0 | 16.0 | 0.01 | 0.53 | 0.08 | 82 | |
| 20260903161240 | 58 | 8.0 | 8.0 | 0.00 | 0.52 | 0.07 | 88 | ||
| 20260903160037 | 57 | 147 | 8.0 | 11.0 | 0.00 | 0.52 | 0.07 | 90 | |
| 20260903155046 | 56 | 135 | 7.0 | 13.0 | 0.00 | 0.52 | 0.07 | 91 | |
| 20260903154035 | 56 | 123 | 7.0 | 9.0 | 0.00 | 0.52 | 0.07 | 91 | |
| 20260903153023 | 56 | 123 | 7.0 | 13.0 | 0.00 | 0.52 | 0.07 | 92 | |
| 20260903152031 | 55 | 119 | 8.0 | 13.0 | 0.00 | 0.52 | 0.07 | 94 | |
| 20260903151021 | 55 | 108 | 6.0 | 9.0 | 0.00 | 0.52 | 0.07 | 95 | |
| 20260903150108 | 55 | 115 | 8.0 | 11.0 | 0.01 | 0.52 | 0.07 | 95 | |
| 20260903145036 | 54 | 128 | 7.0 | 9.0 | 0.02 | 0.52 | 0.07 | 97 | |
| 20260903144027 | 54 | 102 | 5.0 | 8.0 | 0.04 | 0.52 | 0.07 | 98 | |
| 20260903143034 | 54 | 102 | 5.0 | 9.0 | 0.05 | 0.52 | 0.07 | 98 | |
| 20260903142023 | 54 | 113 | 5.0 | 7.0 | 0.07 | 0.52 | 0.07 | 98 | |
| 20260903141032 | 54 | 130 | 6.0 | 9.0 | 0.07 | 0.52 | 0.07 | 97 | |
| 20260903140020 | 54 | 105 | 7.0 | 11.0 | 0.06 | 0.51 | 0.06 | 97 | |
| 20260903135028 | 55 | 123 | 7.0 | 9.0 | 0.05 | 0.50 | 0.05 | 97 | |
| 20260903134040 | 55 | 132 | 9.0 | 11.0 | 0.03 | 0.48 | 0.03 | 96 | |
| 20260903133025 | 55 | 135 | 8.0 | 11.0 | 0.02 | 0.47 | 0.02 | 96 | |
| 20260903132032 | 55 | 101 | 6.0 | 8.0 | 0.00 | 0.45 | 0.00 | 95 | |
| 20260903131024 | 55 | 121 | 7.0 | 10.0 | 0.00 | 0.45 | 0.00 | 93 | |
| 20260903130032 | 56 | 143 | 8.0 | 12.0 | 0.00 | 0.45 | 0.00 | 90 | |
| 20260903125019 | 56 | 114 | 8.0 | 12.0 | 0.00 | 0.45 | 0.00 | 91 | |
| 20260903124027 | 56 | 133 | 7.0 | 11.0 | 0.00 | 0.45 | 0.00 | 91 | |
| 20260903123035 | 56 | 127 | 7.0 | 10.0 | 0.00 | 0.45 | 0.00 | 91 | |
| 20260903122024 | 55 | 118 | 7.0 | 9.0 | 0.00 | 0.45 | 0.00 | 92 | |
| 20260903121110 | 55 | 121 | 8.0 | 11.0 | 0.00 | 0.45 | 0.00 | 92 | |
| 20260903120021 | 55 | 122 | 6.0 | 11.0 | 0.00 | 0.45 | 0.00 | 93 | |
| 20260903115029 | 55 | 97 | 6.0 | 8.0 | 0.00 | 0.45 | 0.00 | 93 | |
| 20260903114040 | 55 | 116 | 5.0 | 7.0 | 0.00 | 0.45 | 0.00 | 93 | |
| 20260903113046 | 55 | 111 | 5.0 | 9.0 | 0.00 | 0.45 | 0.00 | 93 | |
| 20260903112034 | 55 | 113 | 7.0 | 10.0 | 0.00 | 0.45 | 0.00 | 93 | |
| 20260903111024 | 55 | 109 | 7.0 | 9.0 | 0.00 | 0.45 | 0.00 | 93 | |
| 20260903110032 | 55 | 113 | 6.0 | 12.0 | 0.00 | 0.45 | 0.00 | 93 | |
| 20260903105021 | 55 | 102 | 8.0 | 10.0 | 0.00 | 0.45 | 0.00 | 93 | |
| 20260903104031 | 55 | 126 | 6.0 | 10.0 | 0.00 | 0.45 | 0.00 | 94 | |
| 20260903103036 | 55 | 117 | 6.0 | 9.0 | 0.00 | 0.45 | 0.00 | 94 | |
| 20260903102025 | 55 | 115 | 5.0 | 9.0 | 0.00 | 0.45 | 0.00 | 94 | |
| 20260903101033 | 55 | 119 | 7.0 | 10.0 | 0.00 | 0.45 | 0.00 | 94 | |
| 20260903100025 | 55 | 118 | 7.0 | 10.0 | 0.00 | 0.45 | 0.00 | 94 | |
| 20260903095032 | 55 | 110 | 7.0 | 9.0 | 0.00 | 0.45 | 0.00 | 94 | |
| 20260903094020 | 56 | 117 | 6.0 | 11.0 | 0.00 | 0.45 | 0.00 | 93 | |
| 20260903093028 | 56 | 126 | 7.0 | 10.0 | 0.00 | 0.45 | 0.00 | 93 | |
| 20260903092036 | 56 | 115 | 7.0 | 11.0 | 0.00 | 0.45 | 0.00 | 93 | |
| 20260903091024 | 56 | 138 | 9.0 | 14.0 | 0.00 | 0.45 | 0.00 | 93 | |
| 20260903090050 | 56 | 122 | 10.0 | 13.0 | 0.00 | 0.45 | 0.00 | 93 | |
| 20260903085024 | 56 | 129 | 8.0 | 11.0 | 0.00 | 0.45 | 0.00 | 93 | |
| 20260903084109 | 56 | 132 | 7.0 | 10.0 | 0.00 | 0.45 | 0.00 | 93 | |
| 20260903083039 | 56 | 130 | 9.0 | 12.0 | 0.00 | 0.45 | 0.00 | 93 | |
| 20260903082047 | 56 | 127 | 8.0 | 10.0 | 0.00 | 0.45 | 0.00 | 93 | |
| 20260903081035 | 56 | 127 | 8.0 | 11.0 | 0.00 | 0.45 | 0.00 | 93 | |
| 20260903080024 | 56 | 141 | 10.0 | 15.0 | 0.00 | 0.45 | 0.00 | 94 | |
| 20260903075032 | 56 | 120 | 9.0 | 12.0 | 0.00 | 0.45 | 0.00 | 94 | |
| 20260903074044 | 56 | 120 | 7.0 | 11.0 | 0.00 | 0.45 | 0.00 | 94 | |
| 20260903073029 | 56 | 146 | 8.0 | 11.0 | 0.00 | 0.45 | 0.00 | 95 | |
| 20260903072036 | 56 | 145 | 9.0 | 15.0 | 0.00 | 0.45 | 0.00 | 95 | |
| 20260903071045 | 56 | 125 | 8.0 | 11.0 | 0.00 | 0.45 | 0.00 | 95 | |
| 20260903070034 | 56 | 106 | 7.0 | 10.0 | 0.01 | 0.45 | 0.00 | 96 | |
| 20260903065045 | 56 | 133 | 7.0 | 9.0 | 0.01 | 0.45 | 0.45 | 96 | |
| 20260903064031 | 56 | 145 | 5.0 | 9.0 | 0.01 | 0.45 | 0.45 | 96 | |
| 20260903063021 | 56 | 140 | 7.0 | 9.0 | 0.01 | 0.45 | 0.45 | 96 | |
| 20260903062028 | 56 | 125 | 7.0 | 10.0 | 0.02 | 0.45 | 0.45 | 96 | |
| 20260903061036 | 56 | 124 | 6.0 | 8.0 | 0.02 | 0.45 | 0.45 | 96 | |
| 20260903060025 | 56 | 119 | 5.0 | 9.0 | 0.01 | 0.44 | 0.44 | 97 | |
| 20260903055033 | 56 | 112 | 5.0 | 7.0 | 0.01 | 0.44 | 0.44 | 97 | |
| 20260903054022 | 56 | 135 | 5.0 | 7.0 | 0.01 | 0.44 | 0.44 | 96 | |
| 20260903053030 | 57 | 140 | 4.0 | 7.0 | 0.01 | 0.44 | 0.44 | 96 | |
| 20260903052019 | 57 | 159 | 5.0 | 7.0 | 0.00 | 0.43 | 0.43 | 95 | |
| 20260903051048 | 57 | 190 | 6.0 | 10.0 | 0.00 | 0.43 | 0.43 | 95 | |
| 20260903050036 | 56 | 139 | 6.0 | 8.0 | 0.00 | 0.43 | 0.43 | 96 | |
| 20260903045025 | 56 | 112 | 5.0 | 7.0 | 0.00 | 0.43 | 0.43 | 97 | |
| 20260903044032 | 56 | 114 | 5.0 | 7.0 | 0.00 | 0.43 | 0.43 | 97 | |
| 20260903043022 | 56 | 100 | 5.0 | 6.0 | 0.00 | 0.43 | 0.43 | 96 | |
| 20260903042030 | 56 | 119 | 5.0 | 7.0 | 0.00 | 0.43 | 0.43 | 96 | |
| 20260903041019 | 56 | 108 | 5.0 | 9.0 | 0.00 | 0.43 | 0.43 | 95 | |
| 20260903040027 | 57 | 130 | 5.0 | 7.0 | 0.00 | 0.43 | 0.43 | 94 | |
| 20260903035034 | 57 | 127 | 9.0 | 13.0 | 0.00 | 0.43 | 0.43 | 93 | |
| 20260903034044 | 57 | 130 | 6.0 | 9.0 | 0.00 | 0.43 | 0.43 | 93 | |
| 20260903033032 | 57 | 130 | 5.0 | 7.0 | 0.00 | 0.43 | 0.43 | 93 | |
| 20260903032021 | 58 | 133 | 5.0 | 7.0 | 0.00 | 0.43 | 0.43 | 93 | |
| 20260903031029 | 58 | 112 | 3.0 | 5.0 | 0.00 | 0.43 | 0.43 | 93 | |
| 20260903030056 | 0 | 113 | 3.0 | 3.0 | 0.00 | 0.43 | 0.43 | ||
| 20260903025103 | 0 | 108 | 3.0 | 4.0 | 0.00 | 0.43 | 0.43 | ||
| 20260903024150 | 59 | 95 | 5.0 | 6.0 | 0.00 | 0.43 | 0.43 | 92 | |
| 20260903023233 | 59 | 113 | 5.0 | 6.0 | 0.00 | 0.43 | 0.43 | 93 | |
| 20260903022032 | 59 | 126 | 4.0 | 6.0 | 0.00 | 0.43 | 0.43 | 93 | |
| 20260903021041 | 60 | 159 | 4.0 | 5.0 | 0.00 | 0.43 | 0.43 | 91 | |
| 20260903020029 | 60 | 155 | 4.0 | 5.0 | 0.00 | 0.43 | 0.43 | 92 | |
| 20260903015056 | 59 | 158 | 3.0 | 6.0 | 0.01 | 0.43 | 0.43 | 92 | |
| 20260903014026 | 59 | 149 | 4.0 | 5.0 | 0.02 | 0.43 | 0.43 | 92 | |
| 20260903013034 | 59 | 153 | 4.0 | 6.0 | 0.02 | 0.43 | 0.43 | 93 | |
| 20260903012024 | 59 | 165 | 5.0 | 8.0 | 0.02 | 0.43 | 0.43 | 94 | |
| 20260903011032 | 59 | 147 | 5.0 | 9.0 | 0.02 | 0.43 | 0.43 | 94 | |
| 20260903010020 | 59 | 170 | 5.0 | 7.0 | 0.02 | 0.43 | 0.43 | 93 | |
| 20260903005029 | 60 | 152 | 6.0 | 10.0 | 0.01 | 0.42 | 0.42 | 92 | |
| 20260903004036 | 60 | 183 | 6.0 | 9.0 | 0.00 | 0.41 | 0.41 | 93 | |
| 20260903003026 | 60 | 165 | 4.0 | 7.0 | 0.00 | 0.41 | 0.41 | 94 | |
| 20260903002034 | 61 | 163 | 4.0 | 6.0 | 0.00 | 0.41 | 0.41 | 94 | |
| 20260903001042 | 60 | 168 | 5.0 | 8.0 | 0.02 | 0.41 | 0.41 | 93 | |
| 20260903000052 | 60 | 177 | 5.0 | 6.0 | 0.12 | 0.41 | 0.41 | 93 | |
| 20260902235020 | 60 | 171 | 6.0 | 10.0 | 0.15 | 0.41 | 0.41 | 95 | |
| 20260902234029 | 59 | 166 | 4.0 | 5.0 | 0.17 | 0.41 | 0.41 | 96 | |
| 20260902233054 | 59 | 177 | 4.0 | 6.0 | 0.19 | 0.41 | 0.41 | 98 | |
| 20260902232046 | 59 | 168 | 7.0 | 11.0 | 0.19 | 0.41 | 0.41 | 98 | |
| 20260902231033 | 59 | 179 | 9.0 | 13.0 | 0.17 | 0.39 | 0.39 | 97 | |
| 20260902230024 | 59 | 177 | 6.0 | 9.0 | 0.07 | 0.29 | 0.29 | 97 | |
| 20260902225032 | 59 | 147 | 8.0 | 10.0 | 0.05 | 0.26 | 0.26 | 96 | |
| 20260902224019 | 59 | 149 | 10.0 | 15.0 | 0.03 | 0.24 | 0.24 | 96 | |
| 20260902223027 | 60 | 153 | 9.0 | 15.0 | 0.01 | 0.22 | 0.22 | 95 | |
| 20260902222035 | 60 | 145 | 8.0 | 11.0 | 0.02 | 0.22 | 0.22 | 95 | |
| 20260902221024 | 60 | 159 | 10.0 | 13.0 | 0.02 | 0.22 | 0.22 | 93 | |
| 20260902220032 | 60 | 139 | 11.0 | 16.0 | 0.02 | 0.22 | 0.22 | 93 | |
| 20260902215024 | 60 | 166 | 11.0 | 15.0 | 0.02 | 0.21 | 0.21 | 91 | |
| 20260902214050 | 60 | 143 | 10.0 | 17.0 | 0.02 | 0.21 | 0.21 | 90 | |
| 20260902213019 | 60 | 124 | 13.0 | 19.0 | 0.02 | 0.21 | 0.21 | 90 | |
| 20260902212026 | 60 | 148 | 13.0 | 19.0 | 0.01 | 0.20 | 0.20 | 89 | |
| 20260902211035 | 60 | 135 | 13.0 | 22.0 | 0.01 | 0.20 | 0.20 | 89 | |
| 20260902210024 | 60 | 156 | 13.0 | 18.0 | 0.01 | 0.20 | 0.20 | 89 |